Time,TemperatureF,DewpointF,PressureIn,WindDirection,WindDirectionDegrees,WindSpeedMPH,WindSpeedGustMPH,Humidity,HourlyPrecipIn,Conditions,Clouds,dailyrainin,SolarRadiationWatts/m^2,SoftwareType,DateUTC
2013-01-28 00:02:00,38.0,36.0,-100.00,SW,225,9.0,23.0,93,0.00,,,0.06,0.000000,,2013-01-28 07:02:00,
2013-01-28 00:11:00,38.0,36.0,-100.00,SW,225,9.0,23.0,93,0.00,,,0.06,0.000000,,2013-01-28 07:11:00,
2013-01-28 00:21:00,38.0,36.0,-100.00,SW,225,9.0,23.0,93,0.00,,,0.06,0.000000,,2013-01-28 07:21:00,
2013-01-28 00:31:00,38.0,36.0,-100.00,SW,225,9.0,23.0,93,0.00,,,0.06,0.000000,,2013-01-28 07:31:00,
2013-01-28 00:52:00,38.0,36.0,-100.00,SW,217,9.0,21.0,94,0.00,,,0.06,0.000000,,2013-01-28 07:52:00,
2013-01-28 01:01:00,38.0,36.0,-100.00,SW,217,9.0,21.0,94,0.00,,,0.06,0.000000,,2013-01-28 08:01:00,
2013-01-28 01:11:00,38.0,36.0,-100.00,SW,217,9.0,21.0,94,0.00,,,0.06,0.000000,,2013-01-28 08:11:00,
2013-01-28 01:21:00,38.0,36.0,-100.00,SW,217,9.0,21.0,94,0.00,,,0.06,0.000000,,2013-01-28 08:21:00,
2013-01-28 01:31:00,38.0,36.0,-100.00,SW,217,9.0,21.0,94,0.00,,,0.06,0.000000,,2013-01-28 08:31:00,
2013-01-28 02:02:00,37.0,35.0,-100.00,SW,224,11.0,21.0,94,0.00,,,0.06,0.000000,,2013-01-28 09:02:00,
2013-01-28 02:11:00,37.0,35.0,-100.00,SW,224,11.0,21.0,94,0.00,,,0.06,0.000000,,2013-01-28 09:11:00,
2013-01-28 02:21:00,37.0,35.0,-100.00,SW,224,11.0,21.0,94,0.00,,,0.06,0.000000,,2013-01-28 09:21:00,
2013-01-28 02:31:00,37.0,35.0,-100.00,SW,224,11.0,21.0,94,0.00,,,0.06,0.000000,,2013-01-28 09:31:00,
2013-01-28 02:52:00,37.0,35.0,-100.00,SW,221,11.0,23.0,94,0.00,,,0.06,0.000000,,2013-01-28 09:52:00,
2013-01-28 03:01:00,37.0,35.0,-100.00,SW,221,11.0,23.0,94,0.00,,,0.06,0.000000,,2013-01-28 10:01:00,
2013-01-28 03:11:00,37.0,35.0,-100.00,SW,221,11.0,23.0,94,0.00,,,0.06,0.000000,,2013-01-28 10:11:00,
2013-01-28 03:21:00,37.0,35.0,-100.00,SW,221,11.0,23.0,94,0.00,,,0.06,0.000000,,2013-01-28 10:21:00,
2013-01-28 03:31:00,37.0,35.0,-100.00,SW,221,11.0,23.0,94,0.00,,,0.06,0.000000,,2013-01-28 10:31:00,
2013-01-28 04:02:00,36.0,35.0,-100.00,SW,230,14.0,29.0,95,0.00,,,0.06,0.000000,,2013-01-28 11:02:00,
2013-01-28 04:11:00,36.0,35.0,-100.00,SW,230,14.0,29.0,95,0.00,,,0.06,0.000000,,2013-01-28 11:11:00,
2013-01-28 04:21:00,36.0,35.0,-100.00,SW,230,14.0,29.0,95,0.00,,,0.06,0.000000,,2013-01-28 11:21:00,
2013-01-28 04:32:00,36.0,35.0,-100.00,SW,230,14.0,29.0,95,0.00,,,0.06,0.000000,,2013-01-28 11:32:00,
2013-01-28 04:52:00,35.0,34.0,-100.00,SW,235,13.0,23.0,95,0.00,,,0.06,0.000000,,2013-01-28 11:52:00,
2013-01-28 05:03:00,35.0,34.0,-100.00,SW,235,13.0,23.0,95,0.00,,,0.06,0.000000,,2013-01-28 12:03:00,
2013-01-28 05:11:00,35.0,34.0,-100.00,SW,235,13.0,23.0,95,0.00,,,0.06,0.000000,,2013-01-28 12:11:00,
2013-01-28 05:23:00,35.0,34.0,-100.00,SW,235,13.0,23.0,95,0.00,,,0.06,0.000000,,2013-01-28 12:23:00,
2013-01-28 05:32:00,35.0,34.0,-100.00,SW,235,13.0,23.0,95,0.00,,,0.06,0.000000,,2013-01-28 12:32:00,
2013-01-28 06:02:00,34.0,33.0,-100.00,SW,226,14.0,24.0,95,0.00,,,0.03,0.000000,,2013-01-28 13:02:00,
2013-01-28 06:11:00,34.0,33.0,-100.00,SW,226,14.0,24.0,95,0.00,,,0.03,0.000000,,2013-01-28 13:11:00,
2013-01-28 06:22:00,34.0,33.0,-100.00,SW,226,14.0,24.0,95,0.00,,,0.03,0.000000,,2013-01-28 13:22:00,
2013-01-28 06:32:00,34.0,33.0,-100.00,SW,226,14.0,24.0,95,0.00,,,0.03,0.000000,,2013-01-28 13:32:00,
2013-01-28 07:02:00,34.0,33.0,-100.00,SW,222,12.0,24.0,95,0.00,,,0.03,0.000000,,2013-01-28 14:02:00,
2013-01-28 07:12:00,34.0,33.0,-100.00,SW,222,12.0,24.0,95,0.00,,,0.03,0.000000,,2013-01-28 14:12:00,
2013-01-28 07:22:00,34.0,33.0,-100.00,SW,222,12.0,24.0,95,0.00,,,0.03,0.000000,,2013-01-28 14:22:00,
2013-01-28 07:32:00,34.0,33.0,-100.00,SW,222,12.0,24.0,95,0.00,,,0.03,0.000000,,2013-01-28 14:32:00,
2013-01-28 08:03:00,33.0,32.0,-100.00,SW,230,13.0,27.0,95,0.00,,,0.03,1.000000,,2013-01-28 15:03:00,
2013-01-28 08:12:00,33.0,32.0,-100.00,SW,230,13.0,27.0,95,0.00,,,0.03,1.000000,,2013-01-28 15:12:00,
2013-01-28 08:23:00,33.0,32.0,-100.00,SW,230,13.0,27.0,95,0.00,,,0.03,1.000000,,2013-01-28 15:23:00,
2013-01-28 08:32:00,33.0,32.0,-100.00,SW,230,13.0,27.0,95,0.00,,,0.03,1.000000,,2013-01-28 15:32:00,
2013-01-28 08:53:00,33.0,32.0,-100.00,SW,227,14.0,26.0,95,0.01,,,0.04,20.000000,,2013-01-28 15:53:00,
2013-01-28 09:03:00,33.0,32.0,-100.00,SW,227,14.0,26.0,95,0.01,,,0.04,20.000000,,2013-01-28 16:03:00,
2013-01-28 09:12:00,33.0,32.0,-100.00,SW,227,14.0,26.0,95,0.01,,,0.04,20.000000,,2013-01-28 16:12:00,
2013-01-28 09:22:00,33.0,32.0,-100.00,SW,227,14.0,26.0,95,0.01,,,0.04,20.000000,,2013-01-28 16:22:00,
2013-01-28 09:32:00,33.0,32.0,-100.00,SW,227,14.0,26.0,95,0.01,,,0.04,20.000000,,2013-01-28 16:32:00,
2013-01-28 10:01:00,32.0,31.0,-100.00,SW,231,13.0,30.0,96,0.00,,,0.04,33.000000,,2013-01-28 17:01:00,
2013-01-28 10:11:00,32.0,31.0,-100.00,SW,231,13.0,30.0,96,0.00,,,0.04,33.000000,,2013-01-28 17:11:00,
2013-01-28 10:22:00,32.0,31.0,-100.00,SW,231,13.0,30.0,96,0.00,,,0.04,33.000000,,2013-01-28 17:22:00,
2013-01-28 10:32:00,32.0,31.0,-100.00,SW,231,13.0,30.0,96,0.00,,,0.04,33.000000,,2013-01-28 17:32:00,
2013-01-28 11:02:00,32.0,31.0,-100.00,SW,223,12.0,27.0,95,0.00,,,0.04,51.000000,,2013-01-28 18:02:00,
2013-01-28 11:12:00,32.0,31.0,-100.00,SW,223,12.0,27.0,95,0.00,,,0.04,51.000000,,2013-01-28 18:12:00,
2013-01-28 11:23:00,32.0,31.0,-100.00,SW,223,12.0,27.0,95,0.00,,,0.04,51.000000,,2013-01-28 18:23:00,
2013-01-28 11:33:00,32.0,31.0,-100.00,SW,223,12.0,27.0,95,0.00,,,0.04,51.000000,,2013-01-28 18:33:00,
2013-01-28 12:02:00,31.0,30.0,-100.00,SW,232,13.0,24.0,96,0.00,,,0.02,89.000000,,2013-01-28 19:02:00,
2013-01-28 12:12:00,31.0,30.0,-100.00,SW,232,13.0,24.0,96,0.00,,,0.02,89.000000,,2013-01-28 19:12:00,
2013-01-28 12:22:00,31.0,30.0,-100.00,SW,232,13.0,24.0,96,0.00,,,0.02,89.000000,,2013-01-28 19:22:00,
2013-01-28 12:32:00,31.0,30.0,-100.00,SW,232,13.0,24.0,96,0.00,,,0.02,89.000000,,2013-01-28 19:32:00,
2013-01-28 13:02:00,30.0,30.0,-100.00,SW,233,12.0,24.0,99,0.00,,,0.02,170.000000,,2013-01-28 20:02:00,
2013-01-28 13:11:00,30.0,30.0,-100.00,SW,233,12.0,24.0,99,0.00,,,0.02,170.000000,,2013-01-28 20:11:00,
2013-01-28 13:21:00,30.0,30.0,-100.00,SW,233,12.0,24.0,99,0.00,,,0.02,170.000000,,2013-01-28 20:21:00,
2013-01-28 13:32:00,30.0,30.0,-100.00,SW,233,12.0,24.0,99,0.00,,,0.02,170.000000,,2013-01-28 20:32:00,
2013-01-28 13:52:00,29.0,29.0,-100.00,SW,232,10.0,25.0,99,0.00,,,0.02,113.000000,,2013-01-28 20:52:00,
2013-01-28 14:03:00,29.0,29.0,-100.00,SW,232,10.0,25.0,99,0.00,,,0.02,113.000000,,2013-01-28 21:03:00,
2013-01-28 14:11:00,29.0,29.0,-100.00,SW,232,10.0,25.0,99,0.00,,,0.02,113.000000,,2013-01-28 21:11:00,
2013-01-28 14:22:00,29.0,29.0,-100.00,SW,232,10.0,25.0,99,0.00,,,0.02,113.000000,,2013-01-28 21:22:00,
2013-01-28 14:33:00,29.0,29.0,-100.00,SW,232,10.0,25.0,99,0.00,,,0.02,113.000000,,2013-01-28 21:33:00,
2013-01-28 15:01:00,29.0,28.0,-100.00,SW,229,10.0,25.0,97,0.00,,,0.02,85.000000,,2013-01-28 22:01:00,
2013-01-28 15:11:00,29.0,28.0,-100.00,SW,229,10.0,25.0,97,0.00,,,0.02,85.000000,,2013-01-28 22:11:00,
2013-01-28 15:22:00,29.0,28.0,-100.00,SW,229,10.0,25.0,97,0.00,,,0.02,85.000000,,2013-01-28 22:22:00,
2013-01-28 15:32:00,29.0,28.0,-100.00,SW,229,10.0,25.0,97,0.00,,,0.02,85.000000,,2013-01-28 22:32:00,
2013-01-28 16:02:00,28.0,27.0,-100.00,WSW,239,10.0,21.0,96,0.00,,,0.02,94.000000,,2013-01-28 23:02:00,
2013-01-28 16:11:00,28.0,27.0,-100.00,WSW,239,10.0,21.0,96,0.00,,,0.02,94.000000,,2013-01-28 23:11:00,
2013-01-28 16:22:00,28.0,27.0,-100.00,WSW,239,10.0,21.0,96,0.00,,,0.02,94.000000,,2013-01-28 23:22:00,
2013-01-28 16:32:00,28.0,27.0,-100.00,WSW,239,10.0,21.0,96,0.00,,,0.02,94.000000,,2013-01-28 23:32:00,
2013-01-28 17:02:00,26.0,25.0,-100.00,WSW,241,9.0,19.0,95,0.00,,,0.02,62.000000,,2013-01-29 00:02:00,
2013-01-28 17:12:00,26.0,25.0,-100.00,WSW,241,9.0,19.0,95,0.00,,,0.02,62.000000,,2013-01-29 00:12:00,
2013-01-28 17:22:00,26.0,25.0,-100.00,WSW,241,9.0,19.0,95,0.00,,,0.02,62.000000,,2013-01-29 00:22:00,
2013-01-28 17:32:00,26.0,25.0,-100.00,WSW,241,9.0,19.0,95,0.00,,,0.02,62.000000,,2013-01-29 00:32:00,
2013-01-28 18:02:00,25.0,24.0,-100.00,WSW,245,9.0,21.0,95,0.00,,,0.02,47.000000,,2013-01-29 01:02:00,
2013-01-28 18:11:00,25.0,24.0,-100.00,WSW,245,9.0,21.0,95,0.00,,,0.02,47.000000,,2013-01-29 01:11:00,
2013-01-28 18:22:00,25.0,24.0,-100.00,WSW,245,9.0,21.0,95,0.00,,,0.02,47.000000,,2013-01-29 01:22:00,
2013-01-28 18:31:00,25.0,24.0,-100.00,WSW,245,9.0,21.0,95,0.00,,,0.02,47.000000,,2013-01-29 01:31:00,
2013-01-28 19:02:00,22.0,21.0,-100.00,WSW,244,10.0,19.0,94,0.00,,,0.02,4.000000,,2013-01-29 02:02:00,
2013-01-28 19:11:00,22.0,21.0,-100.00,WSW,244,10.0,19.0,94,0.00,,,0.02,4.000000,,2013-01-29 02:11:00,
2013-01-28 19:21:00,22.0,21.0,-100.00,WSW,244,10.0,19.0,94,0.00,,,0.02,4.000000,,2013-01-29 02:21:00,
2013-01-28 19:32:00,22.0,21.0,-100.00,WSW,244,10.0,19.0,94,0.00,,,0.02,4.000000,,2013-01-29 02:32:00,
2013-01-28 20:02:00,22.0,21.0,-100.00,WSW,251,10.0,17.0,94,0.00,,,0.02,0.000000,,2013-01-29 03:02:00,
2013-01-28 20:11:00,22.0,21.0,-100.00,WSW,251,10.0,17.0,94,0.00,,,0.02,0.000000,,2013-01-29 03:11:00,
2013-01-28 20:21:00,22.0,21.0,-100.00,WSW,251,10.0,17.0,94,0.00,,,0.02,0.000000,,2013-01-29 03:21:00,
2013-01-28 20:31:00,22.0,21.0,-100.00,WSW,251,10.0,17.0,94,0.00,,,0.02,0.000000,,2013-01-29 03:31:00,
2013-01-28 20:53:00,21.0,19.0,-100.00,WSW,246,8.0,21.0,93,0.00,,,0.02,0.000000,,2013-01-29 03:53:00,
2013-01-28 21:02:00,21.0,19.0,-100.00,WSW,246,8.0,21.0,93,0.00,,,0.02,0.000000,,2013-01-29 04:02:00,
2013-01-28 21:11:00,21.0,19.0,-100.00,WSW,246,8.0,21.0,93,0.00,,,0.02,0.000000,,2013-01-29 04:11:00,
2013-01-28 21:21:00,21.0,19.0,-100.00,WSW,246,8.0,21.0,93,0.00,,,0.02,0.000000,,2013-01-29 04:21:00,
2013-01-28 21:31:00,21.0,19.0,-100.00,WSW,246,8.0,21.0,93,0.00,,,0.02,0.000000,,2013-01-29 04:31:00,
2013-01-28 22:03:00,21.0,19.0,-100.00,WSW,253,9.0,18.0,93,0.00,,,-99.99,0.000000,,2013-01-29 05:03:00,
2013-01-28 22:12:00,21.0,19.0,-100.00,WSW,253,9.0,18.0,93,0.00,,,-99.99,0.000000,,2013-01-29 05:12:00,
2013-01-28 22:21:00,21.0,19.0,-100.00,WSW,253,9.0,18.0,93,0.00,,,-99.99,0.000000,,2013-01-29 05:21:00,
2013-01-28 22:31:00,21.0,19.0,-100.00,WSW,253,9.0,18.0,93,0.00,,,-99.99,0.000000,,2013-01-29 05:31:00,
2013-01-28 23:01:00,21.0,19.0,-100.00,WSW,246,6.0,19.0,93,0.00,,,0.01,0.000000,,2013-01-29 06:01:00,
2013-01-28 23:11:00,21.0,19.0,-100.00,WSW,246,6.0,19.0,93,0.00,,,0.01,0.000000,,2013-01-29 06:11:00,
2013-01-28 23:21:00,21.0,19.0,-100.00,WSW,246,6.0,19.0,93,0.00,,,0.01,0.000000,,2013-01-29 06:21:00,
2013-01-28 23:31:00,21.0,19.0,-100.00,WSW,246,6.0,19.0,93,0.00,,,0.01,0.000000,,2013-01-29 06:31:00,